[TLELIST] Archives

 

[list_settings.list_name] Current TLEs

December 17th 2010 PST

HST 1 20580U 90037B 10349.82996429 .00000477 00000-0 23579-4 0 6883 2 20580 028.4683 133.9318 0003271 330.3731 029.6707 15.01116541932076 ISS (ZARYA) 1 25544U 98067A 10350.50380087 .00019650 00000-0 13847-3 0 4688 2 25544 051.6463 017.3732 0008279 355.4060 004.7390 15.73323025 96402 CXO 1 25867U 99040B 10348.83333333 -.00000195 00000-0 00000+0 0 5479 2 25867 068.1233 043.7088 8423933 275.7553 352.5053 00.37809413 7071 ____________________________________________________________________ These 2-Line ...Continue Reading

[list_settings.list_name] Current TLEs

December 16th 2010 PST

HST 1 20580U 90037B 10346.90456317 .00000475 00000-0 23466-4 0 6878 2 20580 028.4685 153.0334 0003321 297.7140 062.3099 15.01114695931632 ISS (ZARYA) 1 25544U 98067A 10349.39359954 .00016924 00000-0 12402-3 0 4601 2 25544 051.6464 023.0607 0007946 350.6242 197.2293 15.73273887691970 CXO 1 25867U 99040B 10348.83333333 -.00000195 00000-0 00000+0 0 5479 2 25867 068.1233 043.7088 8423933 275.7553 352.5053 00.37809413 7071 ____________________________________________________________________ These 2-Line ...Continue Reading

[list_settings.list_name] Current TLEs

December 15th 2010 PST

HST 1 20580U 90037B 10346.90456317 .00000475 00000-0 23466-4 0 6878 2 20580 028.4685 153.0334 0003321 297.7140 062.3099 15.01114695931632 ISS (ZARYA) 1 25544U 98067A 10348.43125505 .00016097 00000-0 11838-3 0 4533 2 25544 051.6467 027.9964 0007894 346.8991 146.8158 15.73236570691824 CXO 1 25867U 99040B 10348.83333333 -.00000195 00000-0 00000+0 0 5479 2 25867 068.1233 043.7088 8423933 275.7553 352.5053 00.37809413 7071 ____________________________________________________________________ These 2-Line ...Continue Reading

[list_settings.list_name] Current TLEs

December 14th 2010 PST

HST 1 20580U 90037B 10346.90456317 .00000475 00000-0 23466-4 0 6878 2 20580 028.4685 153.0334 0003321 297.7140 062.3099 15.01114695931632 ISS (ZARYA) 1 25544U 98067A 10347.40457875 .00016253 00000-0 11966-3 0 4465 2 25544 051.6471 033.2613 0007796 342.9182 092.2076 15.73202675691664 CXO 1 25867U 99040B 10346.20833333 -.00000167 00000-0 00000+0 0 5461 2 25867 068.1063 043.8755 8422032 275.7267 355.1903 00.37807657 7065 ____________________________________________________________________ These 2-Line ...Continue Reading

[list_settings.list_name] Current TLEs

December 13th 2010 PST

HST 1 20580U 90037B 10345.90726536 .00000493 00000-0 24766-4 0 6863 2 20580 028.4687 159.5443 0003347 286.8104 073.2023 15.01114233931482 ISS (ZARYA) 1 25544U 98067A 10346.40666667 .00018601 00000-0 13640-3 0 4397 2 25544 051.6467 038.3810 0007793 339.5417 200.1484 15.73177250691500 CXO 1 25867U 99040B 10346.20833333 -.00000167 00000-0 00000+0 0 5461 2 25867 068.1063 043.8755 8422032 275.7267 355.1903 00.37807657 7065 ____________________________________________________________________ These 2-Line ...Continue Reading

[list_settings.list_name] Current TLEs

December 12th 2010 PST

HST 1 20580U 90037B 10343.84618904 .00000624 00000-0 34781-4 0 6856 2 20580 028.4677 172.9995 0003542 258.4127 101.6171 15.01112968931178 ISS (ZARYA) 1 25544U 98067A 10345.37697132 .00021088 00000-0 15420-3 0 4338 2 25544 051.6473 043.6611 0007649 334.7773 129.4675 15.73147680691348 CXO 1 25867U 99040B 10346.20833333 -.00000167 00000-0 00000+0 0 5461 2 25867 068.1063 043.8755 8422032 275.7267 355.1903 00.37807657 7065 ____________________________________________________________________ These 2-Line ...Continue Reading

[list_settings.list_name] Current TLEs

December 11th 2010 PST

HST 1 20580U 90037B 10343.84618904 .00000624 00000-0 34781-4 0 6856 2 20580 028.4677 172.9995 0003542 258.4127 101.6171 15.01112968931178 ISS (ZARYA) 1 25544U 98067A 10344.22396628 .00023076 00000-0 16856-3 0 4262 2 25544 051.6479 049.5711 0007860 330.7910 079.3282 15.73105607691164 CXO 1 25867U 99040B 10343.58333333 -.00000223 00000-0 00000+0 0 5456 2 25867 068.0928 044.0074 8419191 275.7080 357.8835 00.37806115 7056 ____________________________________________________________________ These 2-Line ...Continue Reading

[list_settings.list_name] Current TLEs

December 10th 2010 PST

HST 1 20580U 90037B 10340.98727174 .00000485 00000-0 24164-4 0 6846 2 20580 028.4691 191.6718 0003508 233.2982 126.7295 15.01111107930748 ISS (ZARYA) 1 25544U 98067A 10343.47322127 .00022618 00000-0 16556-3 0 4214 2 25544 051.6472 053.4201 0007953 326.3649 149.3303 15.73068250691049 CXO 1 25867U 99040B 10343.58333333 -.00000223 00000-0 00000+0 0 5456 2 25867 068.0928 044.0074 8419191 275.7080 357.8835 00.37806115 7056 ____________________________________________________________________ These 2-Line ...Continue Reading

[list_settings.list_name] Current TLEs

December 9th 2010 PST

HST 1 20580U 90037B 10340.98727174 .00000485 00000-0 24164-4 0 6846 2 20580 028.4691 191.6718 0003508 233.2982 126.7295 15.01111107930748 ISS (ZARYA) 1 25544U 98067A 10342.47137731 .00020955 00000-0 15412-3 0 4142 2 25544 051.6480 058.5549 0007618 320.9984 237.4589 15.73015402690886 CXO 1 25867U 99040B 10343.58333333 -.00000223 00000-0 00000+0 0 5445 2 25867 068.0928 044.0074 8419191 275.7080 357.8835 00.37806115 7056 ____________________________________________________________________ These 2-Line ...Continue Reading

[list_settings.list_name] Current TLEs

December 8th 2010 PST

HST 1 20580U 90037B 10338.06186613 .00000501 00000-0 25419-4 0 6831 2 20580 028.4690 210.7746 0003659 204.3014 155.7401 15.01109306930304 ISS (ZARYA) 1 25544U 98067A 10341.50490442 .00019999 00000-0 14759-3 0 4066 2 25544 051.6475 063.5099 0007673 316.7984 165.0329 15.72969182690734 CXO 1 25867U 99040B 10340.91666667 -.00000345 00000-0 00000+0 0 5432 2 25867 068.0788 044.1404 8415879 275.6870 354.8857 00.37808033 7044 ____________________________________________________________________ These 2-Line ...Continue Reading
  • This mailing list is a public mailing list - anyone may join or leave, at any time.
  • This mailing list is announce-only.

International Space Station (ISS) / Hubble Space Telescope (HST) / Chandra X-Ray Observatory Orbital Data via EMAIL

Privacy Policy:

Private list